Syracuse, NY

5:59 AM EST on November 15, 2019 (GMT -0500)
Syracuse Hancock International

Weather History for KSYR - September, 2019

Change the Weather History Date:

Wednesday, September 18, 2019

  Actual Average Record
Temperature  
Mean Temperature 60 °F 61 °F  
Max Temperature 73 °F 71 °F 91 °F (1955)
Min Temperature 46 °F 51 °F 34 °F (1939)
Degree Days  
Heating Degree Days 6 5  
Month to date heating degree days 34 54  
Since 1 July heating degree days 39 80  
Cooling Degree Days 0 1  
Month to date cooling degree days 21 43  
Year to date cooling degree days 589 556  
Growing Degree Days 10 (Base 50)    
Moisture  
Dew Point 48 °F    
Average Humidity 70    
Maximum Humidity 93    
Minimum Humidity 41    
Precipitation  
Precipitation 0.00 in 0.13 in 2.29 in (1945)
Month to date precipitation 2.04 2.16  
Year to date precipitation 32.68 26.75  
Snow  
Snow 0.00 in 0.00 in 0.00 in (2002)
Month to date snowfall 0.0 0.0  
Since 1 July snowfall T 0.0  
Since 1 September snowfall 0.0 0.0  
Snow Depth 0.00 in    
Sea Level Pressure  
Sea Level Pressure 30.27 in    
Wind  
Wind Speed 3 mph ()    
Max Wind Speed 12 mph    
Max Gust Speed 16 mph    
Visibility 10.0 miles    
Events      
T = Trace of Precipitation, MM = Missing Value Source: Averaged Metar Reports

Daily Weather History Graph

Daily Weather History Graph

Search for Another Location

Airport or City:

Astronomy

Sep. 18, 2019 Rise Set
Actual Time 6:47 AM EDT 7:09 PM EDT
Civil Twilight 6:18 AM EDT 7:37 PM EDT
Nautical Twilight 5:45 AM EDT 8:11 PM EDT
Astronomical Twilight 5:10 AM EDT 8:45 PM EDT
Moon 9:35 PM EDT (9/18) 10:53 AM EDT (9/18)
Length of Visible Light 13h 19m
Length of Day
12h 22m
Waning Gibbous, 82% of the Moon is Illuminated
Sep 18
Waning Gibbous
Sep 21
Last Quarter
Sep 28
New
Oct 5
First Quarter
Oct 13
Full

Hourly Weather History & Observations

Time (EDT) Temp. Windchill Dew Point Humidity Pressure Visibility Wind Dir Wind Speed Gust Speed Precip Events Conditions
12:54 AM 51.1 °F - 48.0 °F 89% 30.23 in 10.0 mi Calm Calm - N/A   Clear
1:54 AM 51.1 °F - 48.0 °F 89% 30.24 in 10.0 mi Calm Calm - N/A   Clear
2:54 AM 50.0 °F - 46.9 °F 89% 30.24 in 10.0 mi Calm Calm - N/A   Clear
3:54 AM 48.0 °F - 45.0 °F 89% 30.24 in 10.0 mi Calm Calm - N/A   Clear
4:54 AM 46.9 °F - 44.1 °F 90% 30.25 in 10.0 mi Calm Calm - N/A   Clear
5:54 AM 46.0 °F 43.9 °F 43.0 °F 89% 30.27 in 10.0 mi ESE 4.6 mph - N/A   Clear
6:54 AM 46.0 °F 44.8 °F 43.0 °F 89% 30.29 in 10.0 mi ESE 3.5 mph - N/A   Partly Cloudy
7:54 AM 48.9 °F - 46.0 °F 90% 30.30 in 10.0 mi East 4.6 mph - N/A   Partly Cloudy
8:54 AM 55.0 °F - 48.0 °F 77% 30.30 in 10.0 mi ESE 4.6 mph - N/A   Partly Cloudy
9:54 AM 60.1 °F - 48.9 °F 67% 30.31 in 10.0 mi East 4.6 mph - N/A   Partly Cloudy
10:54 AM 64.0 °F - 48.9 °F 58% 30.30 in 10.0 mi Variable 5.8 mph - N/A   Partly Cloudy
11:54 AM 66.9 °F - 48.0 °F 51% 30.29 in 10.0 mi East 8.1 mph - N/A   Partly Cloudy
12:54 PM 69.1 °F - 46.9 °F 45% 30.28 in 10.0 mi ENE 6.9 mph - N/A   Partly Cloudy
1:54 PM 71.1 °F - 46.0 °F 41% 30.28 in 10.0 mi NNE 9.2 mph - N/A   Partly Cloudy
2:54 PM 71.1 °F - 46.9 °F 42% 30.27 in 10.0 mi ENE 3.5 mph - N/A   Partly Cloudy
3:54 PM 73.0 °F - 48.9 °F 42% 30.26 in 10.0 mi North 5.8 mph - N/A   Scattered Clouds
4:54 PM 72.0 °F - 48.9 °F 44% 30.25 in 10.0 mi Variable 5.8 mph - N/A   Partly Cloudy
5:54 PM 71.1 °F - 51.1 °F 49% 30.25 in 10.0 mi NW 8.1 mph - N/A   Partly Cloudy
6:54 PM 64.9 °F - 51.1 °F 61% 30.25 in 10.0 mi NNW 9.2 mph - N/A   Partly Cloudy
7:54 PM 61.0 °F - 51.1 °F 70% 30.27 in 10.0 mi NNW 6.9 mph - N/A   Partly Cloudy
8:54 PM 60.1 °F - 50.0 °F 69% 30.28 in 10.0 mi WSW 5.8 mph - N/A   Partly Cloudy
9:54 PM 57.9 °F - 51.1 °F 78% 30.29 in 10.0 mi Calm Calm - N/A   Partly Cloudy
10:54 PM 53.1 °F - 50.0 °F 89% 30.29 in 10.0 mi ESE 3.5 mph - N/A   Partly Cloudy
11:54 PM 54.0 °F - 50.0 °F 86% 30.29 in 10.0 mi ESE 3.5 mph - N/A   Partly Cloudy